Volver al catálogo

STARLINK-3860

ActivoComunicacionesVLEO
NORAD 52477·PAYLOAD·🇺🇸 United States

Lanzado May 6, 2022 desde Cape Canaveral Space Force Station

Loading…

Próximos Pases (próximas 24 horas)

TLE

ActualizadoSource: CelesTrak SupGP

Época: Sep 15, 2026, 02:39 UTC

1 52477C 22049AC  26258.11090278 -.00010895  00000+0 -32183-3 0  2585
2 52477  53.1572 268.5619 0001292  93.9627 157.8800 15.34401197    12

Sigue STARLINK-3860 en tiempo real con AllMySat

Download on the App Store